When you browse on this site, cookies collect data to enhance your experience and personalize the content and advertising you see.
Visit our Privacy Policy to learn more. By continuing to use the site, you agree to this use of cookies and data.
  • en France
  • Liste des pays
  • À 7 jours
  • Température de l'eau
  • Carte météo
  • Widgets météo
  • user-avatar
    Se connecter

    Météo par heure à El-Obejd

    Ce jour, 18 Août, Dimanche

    Heure Température Précipitation Vent Pression Humidité
    00:00 +29°C° 1 mm 4 m/s 709 mmHg 67%
    01:00 +28°C° 1 mm 4 m/s 708 mmHg 72%
    02:00 +27°C° 0 mm 4 m/s 708 mmHg 76%
    03:00 +27°C° 0.5 mm 4 m/s 708 mmHg 76%
    04:00 +27°C° 0.5 mm 4 m/s 708 mmHg 77%
    05:00 +27°C° 0.5 mm 4 m/s 708 mmHg 77%
    06:00 +27°C° 1.7 mm 4 m/s 709 mmHg 76%
    07:00 +27°C° 1.7 mm 4 m/s 709 mmHg 75%
    08:00 +26°C° 0 mm 4 m/s 709 mmHg 77%
    09:00 +28°C° 0 mm 4 m/s 710 mmHg 72%
    10:00 +29°C° 0 mm 5 m/s 710 mmHg 67%
    11:00 +32°C° 0 mm 5 m/s 710 mmHg 63%
    12:00 +32°C° 0 mm 4 m/s 709 mmHg 59%
    13:00 +33°C° 0 mm 4 m/s 709 mmHg 56%
    14:00 +34°C° 0 mm 3 m/s 708 mmHg 52%
    15:00 +32°C° 1.8 mm 4 m/s 708 mmHg 59%
    16:00 +29°C° 1.8 mm 4 m/s 707 mmHg 67%
    17:00 +28°C° 1.8 mm 5 m/s 707 mmHg 74%
    18:00 +28°C° 0.5 mm 4 m/s 708 mmHg 74%
    19:00 +28°C° 0.5 mm 3 m/s 708 mmHg 73%
    20:00 +28°C° 0.5 mm 2 m/s 709 mmHg 73%
    21:00 +27°C° 0.9 mm 2 m/s 709 mmHg 75%
    22:00 +26°C° 0.9 mm 2 m/s 709 mmHg 78%
    23:00 +25°C° 0.9 mm 1 m/s 709 mmHg 80%

    Demain, 19 Août, Lundi

    Heure Température Précipitation Vent Pression Humidité
    00:00 +25°C° 0.4 mm 2 m/s 709 mmHg 80%
    01:00 +26°C° 0.4 mm 3 m/s 708 mmHg 80%
    02:00 +26°C° 0.4 mm 3 m/s 708 mmHg 80%
    03:00 +26°C° 0 mm 3 m/s 708 mmHg 79%
    04:00 +26°C° 0 mm 2 m/s 708 mmHg 79%
    05:00 +27°C° 0 mm 2 m/s 709 mmHg 78%
    06:00 +27°C° 0.1 mm 2 m/s 709 mmHg 77%
    07:00 +27°C° 0.1 mm 2 m/s 709 mmHg 76%
    08:00 +27°C° 0.1 mm 2 m/s 710 mmHg 75%
    09:00 +28°C° 0.3 mm 2 m/s 710 mmHg 70%
    10:00 +29°C° 0.3 mm 2 m/s 710 mmHg 66%
    11:00 +29°C° 0.3 mm 2 m/s 710 mmHg 61%
    12:00 +30°C° 0 mm 2 m/s 710 mmHg 58%
    13:00 +31°C° 0 mm 2 m/s 709 mmHg 54%
    14:00 +32°C° 0 mm 2 m/s 709 mmHg 50%
    15:00 +32°C° 0 mm 2 m/s 708 mmHg 49%
    16:00 +32°C° 0 mm 2 m/s 708 mmHg 49%
    17:00 +32°C° 0 mm 2 m/s 708 mmHg 48%
    18:00 +32°C° 0.2 mm 2 m/s 708 mmHg 53%
    19:00 +31°C° 0.2 mm 2 m/s 709 mmHg 57%
    20:00 +30°C° 0.2 mm 2 m/s 709 mmHg 61%
    21:00 +29°C° 0.3 mm 2 m/s 709 mmHg 66%
    22:00 +28°C° 0.3 mm 3 m/s 709 mmHg 71%
    23:00 +27°C° 0.3 mm 4 m/s 709 mmHg 76%

    Après-demain, 20 Août, Mardi

    Heure Température Précipitation Vent Pression Humidité
    00:00 +27°C° 0 mm 3 m/s 709 mmHg 77%
    01:00 +27°C° 0 mm 2 m/s 709 mmHg 77%
    02:00 +27°C° 0 mm 1 m/s 708 mmHg 77%
    03:00 +27°C° 0.3 mm 2 m/s 709 mmHg 78%
    04:00 +27°C° 0.3 mm 2 m/s 709 mmHg 79%
    05:00 +26°C° 0.3 mm 3 m/s 709 mmHg 80%
    06:00 +26°C° 2 mm 3 m/s 710 mmHg 81%
    07:00 +26°C° 2 mm 4 m/s 710 mmHg 82%
    08:00 +26°C° 2 mm 4 m/s 711 mmHg 83%
    09:00 +27°C° 0.3 mm 4 m/s 711 mmHg 77%
    10:00 +28°C° 0.3 mm 4 m/s 711 mmHg 72%
    11:00 +29°C° 0.3 mm 4 m/s 711 mmHg 67%
    12:00 +29°C° 0 mm 4 m/s 710 mmHg 64%
    13:00 +30°C° 0 mm 4 m/s 709 mmHg 61%
    14:00 +32°C° 0 mm 4 m/s 709 mmHg 58%
    15:00 +31°C° 0.1 mm 3 m/s 709 mmHg 57%
    16:00 +31°C° 0.1 mm 3 m/s 709 mmHg 56%
    17:00 +31°C° 0.1 mm 2 m/s 709 mmHg 55%
    18:00 +30°C° 0 mm 2 m/s 709 mmHg 59%
    19:00 +30°C° 0 mm 3 m/s 710 mmHg 64%
    20:00 +29°C° 0 mm 3 m/s 710 mmHg 68%
    21:00 +28°C° 0 mm 3 m/s 710 mmHg 71%
    22:00 +28°C° 0 mm 3 m/s 710 mmHg 73%
    23:00 +27°C° 0 mm 2 m/s 710 mmHg 75%

    21 Août, Mercredi

    Heure Température Précipitation Vent Pression Humidité
    00:00 +27°C° 0 mm 3 m/s 710 mmHg 76%
    01:00 +27°C° 0 mm 3 m/s 709 mmHg 78%
    02:00 +26°C° 0 mm 3 m/s 709 mmHg 79%
    03:00 +26°C° 0 mm 3 m/s 709 mmHg 79%
    04:00 +26°C° 0 mm 3 m/s 709 mmHg 79%
    05:00 +26°C° 0 mm 2 m/s 710 mmHg 79%
    06:00 +27°C° 0 mm 3 m/s 710 mmHg 77%
    07:00 +27°C° 0 mm 4 m/s 711 mmHg 75%
    08:00 +28°C° 0 mm 4 m/s 711 mmHg 73%
    09:00 +29°C° 0 mm 4 m/s 711 mmHg 68%
    10:00 +30°C° 0 mm 5 m/s 711 mmHg 64%
    11:00 +32°C° 0 mm 5 m/s 711 mmHg 59%
    12:00 +33°C° 0 mm 4 m/s 710 mmHg 55%
    13:00 +34°C° 0 mm 4 m/s 710 mmHg 50%
    14:00 +35°C° 0 mm 3 m/s 709 mmHg 46%
    15:00 +35°C° 0 mm 2 m/s 709 mmHg 45%
    16:00 +35°C° 0 mm 2 m/s 709 mmHg 44%
    17:00 +35°C° 0 mm 2 m/s 708 mmHg 43%
    18:00 +34°C° 0 mm 2 m/s 709 mmHg 47%
    19:00 +32°C° 0 mm 2 m/s 709 mmHg 50%
    20:00 +31°C° 0 mm 2 m/s 709 mmHg 54%
    21:00 +31°C° 0 mm 2 m/s 709 mmHg 56%
    22:00 +30°C° 0 mm 3 m/s 710 mmHg 58%
    23:00 +30°C° 0 mm 3 m/s 710 mmHg 60%

    22 Août, Jeudi

    Heure Température Précipitation Vent Pression Humidité
    00:00 +29°C° 0 mm 3 m/s 710 mmHg 62%
    01:00 +29°C° 0 mm 3 m/s 709 mmHg 64%
    02:00 +29°C° 0 mm 4 m/s 709 mmHg 66%
    03:00 +28°C° 0 mm 4 m/s 709 mmHg 68%
    04:00 +28°C° 0 mm 5 m/s 709 mmHg 70%
    05:00 +28°C° 0 mm 5 m/s 710 mmHg 72%
    06:00 +26°C° 5.2 mm 7 m/s 710 mmHg 77%
    07:00 +24°C° 5.2 mm 9 m/s 710 mmHg 83%
    08:00 +23°C° 5.2 mm 11 m/s 710 mmHg 89%
    09:00 +23°C° 1.4 mm 10 m/s 710 mmHg 84%
    10:00 +24°C° 1.4 mm 8 m/s 710 mmHg 79%
    11:00 +26°C° 1.4 mm 7 m/s 710 mmHg 74%
    12:00 +27°C° 0 mm 6 m/s 710 mmHg 68%
    13:00 +28°C° 0 mm 5 m/s 710 mmHg 63%
    14:00 +30°C° 0 mm 4 m/s 709 mmHg 58%
    15:00 +30°C° 0 mm 4 m/s 709 mmHg 58%
    16:00 +30°C° 0 mm 5 m/s 708 mmHg 58%
    17:00 +30°C° 0 mm 5 m/s 708 mmHg 58%
    18:00 +29°C° 0 mm 4 m/s 708 mmHg 62%
    19:00 +28°C° 0 mm 3 m/s 709 mmHg 66%
    20:00 +27°C° 0 mm 2 m/s 709 mmHg 71%
    21:00 +27°C° 0 mm 3 m/s 709 mmHg 73%
    22:00 +26°C° 0 mm 3 m/s 709 mmHg 75%
    23:00 +26°C° 0 mm 3 m/s 709 mmHg 77%

    23 Août, Vendredi

    Heure Température Précipitation Vent Pression Humidité
    00:00 +25°C° 0 mm 4 m/s 709 mmHg 76%
    01:00 +25°C° 0 mm 5 m/s 708 mmHg 76%
    02:00 +24°C° 0 mm 6 m/s 708 mmHg 75%
    03:00 +24°C° 0 mm 6 m/s 708 mmHg 77%
    04:00 +25°C° 0 mm 5 m/s 709 mmHg 79%
    05:00 +25°C° 0 mm 5 m/s 709 mmHg 81%
    06:00 +25°C° 0 mm 5 m/s 709 mmHg 79%
    07:00 +26°C° 0 mm 5 m/s 710 mmHg 76%
    08:00 +26°C° 0 mm 6 m/s 710 mmHg 74%
    09:00 +28°C° 0 mm 6 m/s 711 mmHg 68%
    10:00 +29°C° 0 mm 6 m/s 711 mmHg 61%
    11:00 +32°C° 0 mm 5 m/s 711 mmHg 55%
    12:00 +33°C° 0 mm 5 m/s 711 mmHg 53%
    13:00 +33°C° 0 mm 6 m/s 710 mmHg 51%
    14:00 +34°C° 0 mm 6 m/s 710 mmHg 48%
    15:00 +34°C° 0 mm 5 m/s 709 mmHg 49%
    16:00 +34°C° 0 mm 5 m/s 709 mmHg 49%
    17:00 +33°C° 0 mm 4 m/s 708 mmHg 50%
    18:00 +33°C° 0 mm 4 m/s 709 mmHg 54%
    19:00 +31°C° 0 mm 3 m/s 709 mmHg 57%
    20:00 +30°C° 0 mm 3 m/s 709 mmHg 61%
    21:00 +29°C° 0 mm 3 m/s 709 mmHg 63%
    22:00 +29°C° 0 mm 3 m/s 709 mmHg 66%
    23:00 +28°C° 0 mm 4 m/s 710 mmHg 69%
    Voir plus